Location: Sabalos
(43.2860°N, 0.1414°E)
Time: 04:38:53
(UTC+00:00)

USA 245 - Pass Details

Date: 05 July 2020
Orbit: 271 x 1010 km, 97.9° (Epoch: 03 August)

Event Time Altitude Azimuth Distance (km) Brightness Sun altitude
Exits shadow 21:08:29 19° 169° (S) 1,112 4.4 -12.7°
Maximum altitude 21:10:45 84° 255° (WSW) 488 3.0 -12.9°
Drops below altitude 10° 21:14:46 10° 346° (NNW) 1,883 7.1 -13.4°
Sets 21:17:13 0° 347° (NNW) 2,929 8.2 -13.7°
